Location: Tr�vern
(48.0333°N, 4.6000°W)
Time: 02:31:07
(UTC+00:00)

IRS-1D - Pass Details

Date: 14 July 2020
Orbit: 739 x 817 km, 98.6° (Epoch: 04 August)

Event Time Altitude Azimuth Distance (km) Brightness Sun altitude
Rises 02:18:37 0° 17° (NNE) 3,197 8.4 -15.8°
Reaches altitude 10° 02:20:58 10° 22° (NNE) 2,264 7.3 -15.6°
Maximum altitude 02:25:51 57° 101° (E) 875 3.9 -15.2°
Enters shadow 02:29:30 17° 176° (S) 1,788 4.9 -14.9°
